星链-31340 (STARLINK-31340 )

导读 | 星芒AI

STARLINK-31340 是 SpaceX Starlink 卫星互联网项目中的一颗低轨卫星,属于第 11 批部署的星链卫星之一。该卫星于 2023 年发射,运行在约 550 公里的轨道高度,旨在为全球用户提供高速、低延迟的互联网服务。作为星链星座的一部分,它支持偏远地区的网络连接,并增强整体网络的覆盖与稳定性。该卫星采用先进推进系统,具备自主变轨和避碰能力,有助于减少太空碎片风险。

基本信息
目录编号:
59170
目录名称:
STARLINK-31340
国际标识:
2024-044U
轨道中心:
EARTH
卫星名称:
星链-31340
卫星全名:
星链-31340 (STARLINK-31340 )
卫星状态:
在轨 (已飞行607 天)
发射日期:
2024-03-04 UTC
国别 :
美国 (US)
星等 :
--
轨道信息
数据来源 国际轨道数据 AOE轨道数据
星历时间 2025-10-31T02:29:52+0800
1天前
查看轨道信息
2025-10-26T09:00:00+0800
6天前
查看轨道信息
半长轴 6861.201km 6861.19km
偏心率 0.0001309 0.0002093
轨道倾角 43.005° 43.003°
近地点辐角 275.528° 272.626°
升交点赤经 81.186° 107.899°
平近点角 84.542° 330.419°
近地点 482.167km 481.618km
远地点 483.965km 484.492km
周期 94.267分钟 94.267分钟
每日圈数 15.275753 15.275789
详细信息
固有亮度:
5
最大亮度:
0.3
卫星平台:
Starlink v2.0 mini
覆盖范围:
全球
运营商:
太空探索技术公司
运营商所在国:
美国
制造商(研发单位):
太空探索技术公司
制造商所在国:
美国
使用方式:
暂无
卫星简介
星链(Starlink)计划是由太空探索技术公司(SpaceX)提出的一个巨型低轨卫星互联网星座项目,计划在2019年至2024年间在太空搭建由约1.2万颗卫星组成的“星链”网络,其中1584颗将部署在地球上空550千米处的近地轨道,并从2020年开始工作。该卫星仍在工作。
2D轨道图
3D轨道图
轨道高度分析图
轨道倾角分析图
轨道综合分析图
查看轨道综合分析图